Weather History for Wadena, MN

Change the Weather History Date:

Saturday, August 10, 2013

  Actual Average Record
Temperature  
Mean Temperature 62 °F -  
Max Temperature 71 °F 77 °F 101 °F (1947)
Min Temperature 53 °F 52 °F 41 °F (1967)
Degree Days  
Heating Degree Days 3    
Growing Degree Days 12 (Base 50)    
Moisture  
Dew Point 53 °F    
Average Humidity 73    
Maximum Humidity 94    
Minimum Humidity 46    
Precipitation  
Precipitation 0.00 in - - ()
Sea Level Pressure  
Sea Level Pressure 30.16 in    
Wind  
Wind Speed 1 mph (SSW)    
Max Wind Speed 7 mph    
Max Gust Speed -    
Visibility 10 miles    
Events      
Averages and records for this station are not official NWS values.
T = Trace of Precipitation, MM = Missing Value Source: NWS Daily Summary

Daily Weather History Graph

Daily Weather History Graph

Search for Another Location

Airport:

Trip Planner

Search our weather history database for the weather conditions in past years. The results will help you decide how hot, cold, wet, or windy it might be!

Date:

Astronomy

Aug. 10, 2013 Rise Set
Actual Time 6:13 AM CDT 8:38 PM CDT
Civil Twilight 5:39 AM CDT 9:11 PM CDT
Nautical Twilight 4:57 AM CDT 9:53 PM CDT
Astronomical Twilight 4:09 AM CDT 10:40 PM CDT
Moon 10:18 AM CDT (8/10) 10:00 PM CDT (8/10)
Length of Visible Light 15h 31m
Length of Day
14h 24m
Waxing Crescent, 14% of the Moon is Illuminated
Aug 10
Waxing Crescent
Aug 14
First Quarter
Aug 20
Full
Aug 28
Last Quarter
Sep 5
New

Hourly Weather History & Observations

Time (CDT) Temp. Dew Point Humidity Pressure Visibility Wind Dir Wind Speed Gust Speed Precip Events Conditions
12:15 AM 57.2 °F 51.8 °F 82% 30.15 in 10.0 mi Calm Calm - N/A   Overcast
12:35 AM 57.2 °F 51.8 °F 82% 30.16 in 10.0 mi Calm Calm - N/A   Overcast
12:52 AM 57.2 °F 51.8 °F 82% 30.15 in 10.0 mi Calm Calm - N/A   Overcast
1:14 AM 55.4 °F 51.8 °F 88% 30.15 in 10.0 mi Calm Calm - N/A   Overcast
1:34 AM 55.4 °F 51.8 °F 88% 30.16 in 10.0 mi WNW 3.5 mph - N/A   Overcast
1:53 AM 57.2 °F 51.8 °F 82% 30.16 in 10.0 mi Calm Calm - N/A   Overcast
2:15 AM 57.2 °F 51.8 °F 82% 30.17 in 10.0 mi Calm Calm - N/A   Overcast
2:34 AM 57.2 °F 51.8 °F 82% 30.17 in 10.0 mi Calm Calm - N/A   Overcast
2:53 AM 55.4 °F 53.6 °F 94% 30.17 in 10.0 mi Calm Calm - N/A   Overcast
3:15 AM 55.4 °F 51.8 °F 88% 30.17 in 10.0 mi NW 3.5 mph - N/A   Overcast
3:35 AM 55.4 °F 53.6 °F 94% 30.17 in 10.0 mi Calm Calm - N/A   Overcast
3:52 AM 55.4 °F 51.8 °F 88% 30.17 in 10.0 mi Calm Calm - N/A   Overcast
4:14 AM 55.4 °F 53.6 °F 94% 30.18 in 10.0 mi Calm Calm - N/A   Overcast
4:35 AM 55.4 °F 53.6 °F 94% 30.18 in 10.0 mi Calm Calm - N/A   Overcast
4:53 AM 55.4 °F 53.6 °F 94% 30.18 in 10.0 mi Calm Calm - N/A   Overcast
5:15 AM 55.4 °F 53.6 °F 94% 30.18 in 10.0 mi Calm Calm - N/A   Overcast
5:35 AM 55.4 °F 53.6 °F 94% 30.18 in 10.0 mi Calm Calm - N/A   Overcast
5:53 AM 55.4 °F 53.6 °F 94% 30.19 in 10.0 mi Calm Calm - N/A   Overcast
6:15 AM 55.4 °F 53.6 °F 94% 30.19 in 10.0 mi Calm Calm - N/A   Overcast
6:35 AM 55.4 °F 53.6 °F 94% 30.19 in 10.0 mi Calm Calm - N/A   Overcast
6:52 AM 55.4 °F 53.6 °F 94% 30.19 in 10.0 mi Calm Calm - N/A   Overcast
7:14 AM 55.4 °F 53.6 °F 94% 30.20 in 10.0 mi Calm Calm - N/A   Overcast
7:35 AM 57.2 °F 53.6 °F 88% 30.20 in 10.0 mi Calm Calm - N/A   Overcast
7:53 AM 57.2 °F 53.6 °F 88% 30.20 in 10.0 mi Calm Calm - N/A   Overcast
8:14 AM 59.0 °F 53.6 °F 82% 30.20 in 10.0 mi Calm Calm - N/A   Overcast
8:35 AM 60.8 °F 53.6 °F 77% 30.20 in 10.0 mi Calm Calm - N/A   Overcast
8:52 AM 60.8 °F 53.6 °F 77% 30.20 in 10.0 mi Calm Calm - N/A   Overcast
9:15 AM 60.8 °F 53.6 °F 77% 30.20 in 10.0 mi Calm Calm - N/A   Overcast
9:35 AM 62.6 °F 53.6 °F 72% 30.20 in 10.0 mi Calm Calm - N/A   Scattered Clouds
9:53 AM 64.4 °F 53.6 °F 68% 30.20 in 10.0 mi Calm Calm - N/A   Scattered Clouds
10:15 AM 62.6 °F 53.6 °F 72% 30.20 in 10.0 mi Calm Calm - N/A   Clear
10:35 AM 62.6 °F 53.6 °F 72% 30.19 in 10.0 mi Calm Calm - N/A   Scattered Clouds
10:52 AM 66.2 °F 53.6 °F 64% 30.19 in 10.0 mi SW 3.5 mph - N/A   Mostly Cloudy
11:15 AM 64.4 °F 51.8 °F 64% 30.19 in 10.0 mi Calm Calm - N/A   Overcast
11:35 AM 66.2 °F 51.8 °F 60% 30.19 in 10.0 mi Calm Calm - N/A   Overcast
11:52 AM 68.0 °F 51.8 °F 56% 30.19 in 10.0 mi Calm Calm - N/A   Mostly Cloudy
12:14 PM 69.8 °F 51.8 °F 53% 30.19 in 10.0 mi WNW 5.8 mph - N/A   Overcast
12:35 PM 66.2 °F 50.0 °F 56% 30.19 in 10.0 mi WNW 3.5 mph - N/A   Overcast
12:52 PM 66.2 °F 51.8 °F 60% 30.19 in 10.0 mi WNW 3.5 mph - N/A   Overcast
1:15 PM 68.0 °F 51.8 °F 56% 30.19 in 10.0 mi Calm Calm - N/A   Overcast
1:35 PM 69.8 °F 51.8 °F 53% 30.18 in 10.0 mi Calm Calm - N/A   Overcast
1:53 PM 69.8 °F 50.0 °F 49% 30.18 in 10.0 mi Calm Calm - N/A   Overcast
2:15 PM 69.8 °F 51.8 °F 53% 30.17 in 10.0 mi WSW 4.6 mph - N/A   Overcast
2:35 PM 71.6 °F 51.8 °F 50% 30.17 in 10.0 mi Calm Calm - N/A   Overcast
2:53 PM 71.6 °F 51.8 °F 50% 30.16 in 10.0 mi SW 5.8 mph - N/A   Overcast
3:15 PM 71.6 °F 51.8 °F 50% 30.15 in 10.0 mi West 3.5 mph - N/A   Overcast
3:34 PM 71.6 °F 50.0 °F 46% 30.15 in 10.0 mi SW 4.6 mph - N/A   Mostly Cloudy
3:52 PM 69.8 °F 51.8 °F 53% 30.15 in 10.0 mi SSW 5.8 mph - N/A   Mostly Cloudy
4:15 PM 71.6 °F 51.8 °F 50% 30.14 in 10.0 mi Calm Calm - N/A   Overcast
4:35 PM 71.6 °F 51.8 °F 50% 30.13 in 10.0 mi SSE 4.6 mph - N/A   Overcast
4:53 PM 71.6 °F 51.8 °F 50% 30.14 in 10.0 mi SSW 5.8 mph - N/A   Overcast
5:14 PM 71.6 °F 51.8 °F 50% 30.13 in 10.0 mi South 6.9 mph - N/A   Mostly Cloudy
5:34 PM 69.8 °F 51.8 °F 53% 30.13 in 10.0 mi SE 5.8 mph - N/A   Mostly Cloudy
5:52 PM 71.6 °F 53.6 °F 53% 30.13 in 10.0 mi SSE 6.9 mph - N/A   Mostly Cloudy
6:15 PM 71.6 °F 53.6 °F 53% 30.12 in 10.0 mi South 4.6 mph - N/A   Overcast
6:35 PM 71.6 °F 53.6 °F 53% 30.12 in 10.0 mi South 5.8 mph - N/A   Mostly Cloudy
6:53 PM 69.8 °F 53.6 °F 56% 30.11 in 10.0 mi South 5.8 mph - N/A   Scattered Clouds
7:15 PM 68.0 °F 53.6 °F 60% 30.10 in 10.0 mi South 4.6 mph - N/A   Mostly Cloudy
7:35 PM 68.0 °F 55.4 °F 64% 30.10 in 10.0 mi SSE 3.5 mph - N/A   Mostly Cloudy
7:52 PM 68.0 °F 53.6 °F 60% 30.09 in 10.0 mi SSE 3.5 mph - N/A   Overcast
8:14 PM 66.2 °F 53.6 °F 64% 30.09 in 10.0 mi SSE 3.5 mph - N/A   Mostly Cloudy
8:34 PM 66.2 °F 55.4 °F 68% 30.09 in 10.0 mi Calm Calm - N/A   Mostly Cloudy
8:53 PM 62.6 °F 55.4 °F 77% 30.09 in 10.0 mi Calm Calm - N/A   Overcast
9:13 PM 62.6 °F 53.6 °F 72% 30.10 in 10.0 mi Calm Calm - N/A   Scattered Clouds
9:34 PM 60.8 °F 53.6 °F 77% 30.11 in 10.0 mi Calm Calm - N/A   Clear
9:52 PM 59.0 °F 53.6 °F 82% 30.10 in 10.0 mi Calm Calm - N/A   Clear
10:15 PM 57.2 °F 53.6 °F 88% 30.11 in 10.0 mi Calm Calm - N/A   Clear
10:35 PM 55.4 °F 51.8 °F 88% 30.10 in 10.0 mi Calm Calm - N/A   Clear
10:52 PM 53.6 °F 51.8 °F 94% 30.09 in 10.0 mi Calm Calm - N/A   Clear
11:15 PM 55.4 °F 51.8 °F 88% 30.09 in 10.0 mi Calm Calm - N/A   Clear
11:35 PM 55.4 °F 51.8 °F 88% 30.09 in 10.0 mi Calm Calm - N/A   Clear
11:53 PM 55.4 °F 51.8 °F 88% 30.09 in 10.0 mi Calm Calm - N/A   Clear